STARLINK-11183, 60189

Orbit data source: Space-Track

STARLINK-11183, 60189 is a payload satellite owned by SpaceX/Seattle (US) in LEO that was launched on Wed, 03 Jul 2024 UTC via an FALCON 9 launch vehicle from the Air Force Eastern Test Range (AFETR). Payload-class satellites include a variety of spacecraft equipped with specific instruments for various scientific and technological missions. These include communications satellites like Starlink; space stations such as the ISS; scientific satellites like the Hubble; Earth observation satellites from companies like Planet Labs, Umbra, and HawkEye 360; GPS; miniature CubeSats for education and research; and military/defense satellites.

Loading next visibility...
Identifier
60189, 2024-124G
Orbit
LEO
Country
Flag of USUS
Related business
Manufacturer
SpaceX/Seattle
Mission
Operational Commercial Communications
Bus & Motor
STARLINK V2MD, Unknown motor
Mass
960 kg wet, ~910 kg dry
Launch date (UTC)
2024-07-03 (1 year ago)
Launch vehicle
FALCON 9
Launch site
Air Force Eastern Test Range (AFETR)
Object type
Payload
Rocket body
Debris
Shape & HBR
Box + 2 Pan, 18.1 m
Radar Cross Section
36.964 m², Large (>1 m²)

Expand to show TLE details & history
Last TLE update: 14 hours ago

TLE from 14 hours ago
0 STARLINK-11183
1 60189U 24124G   25293.57795014  .00008691  00000-0  76437-4 0  9991
2 60189  53.1569 132.2728 0000652 113.8133 246.2954 15.69734138 74520
Epoch: 2025-10-20T13:52Z
TLE epoch observation values (Epoch: 2025-10-20T13:52:14.892Z)
Latitude
0.00006°
Longitude
-105.06746°
Altitude
360.749 km
Speed
7.694 km/s
True Right ascension
08h 49m 05s
True Declination
0° 00' 00"
Sunlit
Object was in daylight at epoch
Visualization orbit readout
Latitude
Unknown
Longitude
Unknown
Altitude
Unknown
Speed
Unknown
Apparent Right ascension
Unknown
Apparent Declination
Unknown
Sunlit
N/A
Visualization observer readout
Local Sidereal Time
22:28:08
Azimuth
Unknown
Elevation
Unknown
Doppler factor
Unknown
Orbital elements
Apogee altitude
360.358 km
Perigee altitude
359.48 km
Semi-major axis
6,738.056 km
Eccentricity
0.00007
Inclination
53.1569°
RAAN
132.2728°
Arg. of periapsis
113.8133°
True anomaly
246.28856°
Mean anomaly
246.2954°
Eccentric anomaly
246.29198°
Mean motion
3.92411 °/min
Orbital period
91.74 mins
BSTAR
0.000076437
Loading maneuver chart data...
Computing Atmospheric mass density...
Loading historical data...
Loading historical data...
Loading historical data...
Loading historical data...
Loading historical data...
Loading historical data...
Loading historical data...

Documentation

Showing up to 5 results
|